Location: Göttingen
(51.5413°N, 9.9158°E)
Time: 22:29:52
(UTC+02:00)

Tiros 1 despin weight - Pass Details

Date: 29 May 2022
Orbit: 591 x 639 km, 48.2° (Epoch: 02 July)

Event Time Altitude Azimuth Distance (km) Brightness Sun altitude
Rises 23:41:19 0° 277° (W) 2,847 ? -13.7°
Reaches altitude 10° 23:44:01 10° 262° (W) 1,934 ? -13.9°
Maximum altitude 23:47:24 22° 212° (SSW) 1,325 ? -14.1°
Enters shadow 23:48:35 19° 189° (S) 1,411 ? -14.2°
